This is the latest recevied weather packets stored in our database for station/object IZ3VCM. If no packets are shown the sender has not sent any weather packets the latest 10 day(s).
| Time | Temp. | Humidity | Pressure | Rain* | Wind** | Luminosity | Snow |
|---|---|---|---|---|---|---|---|
| 1777475704 | 22.78° C | 54% | 1015.9 hPa | 0 mm | - | - | - |
| 1777474807 | 22.78° C | 54% | 1015.8 hPa | 0 mm | - | - | - |
| 1777473905 | 23.33° C | 54% | 1015.8 hPa | 0 mm | - | - | - |
| 1777473007 | 22.78° C | 54% | 1015.9 hPa | 0 mm | - | - | - |
| 1777472104 | 23.89° C | 53% | 1016 hPa | 0 mm | - | - | - |
| 1777471206 | 23.33° C | 52% | 1016.2 hPa | 0 mm | - | - | - |
| 1777470304 | 23.33° C | 52% | 1016.1 hPa | 0 mm | - | - | - |
| 1777469406 | 22.78° C | 50% | 1016.1 hPa | 0 mm | - | - | - |
| 1777468504 | 23.89° C | 50% | 1016 hPa | 0 mm | - | - | - |
| 1777467607 | 24.44° C | 52% | 1016.1 hPa | 0 mm | - | - | - |
| 1777466705 | 24.44° C | 52% | 1016.1 hPa | 0 mm | - | - | - |
| 1777465807 | 23.89° C | 52% | 1016.1 hPa | 0 mm | - | - | - |
| 1777464904 | 24.44° C | 53% | 1016.1 hPa | 0 mm | - | - | - |
| 1777464006 | 24.44° C | 53% | 1016 hPa | 0 mm | - | - | - |
| 1777463104 | 25° C | 53% | 1016.1 hPa | 0 mm | - | - | - |
| 1777462206 | 24.44° C | 54% | 1016.1 hPa | 0 mm | - | - | - |
| 1777461304 | 23.89° C | 54% | 1016.2 hPa | 0 mm | - | - | - |
| 1777460407 | 23.33° C | 55% | 1016.2 hPa | 0 mm | - | - | - |
| 1777459504 | 23.89° C | 55% | 1016.3 hPa | 0 mm | - | - | - |
| 1777458607 | 24.44° C | 56% | 1016.3 hPa | 0 mm | - | - | - |
| 1777457704 | 22.78° C | 57% | 1016.2 hPa | 0 mm | - | - | - |
| 1777456806 | 23.33° C | 57% | 1016.2 hPa | 0 mm | - | - | - |
| 1777455904 | 23.89° C | 56% | 1016.1 hPa | 0 mm | - | - | - |
| 1777455006 | 23.33° C | 58% | 1016.2 hPa | 0 mm | - | - | - |
| 1777454104 | 21.67° C | 62% | 1016.4 hPa | 0 mm | - | - | - |
* Rain latest hour (hover to see other rain measurements)
** Current wind speed in m/s (hover to see current wind gust speed)